[[{"header":{"parameterUnit":"m.s-1","parameterCategory":2,"la1":30.2991,"la2":30.254,"lo1":-89.0895,"lo2":-89.0444,"dy":0.0017,"dx":0.0017,"nx":28,"ny":28,"refTime":"2025-02-03T03:00:00:Z","depth":"0","parameterNumber":2,"parameterNumberName":"U-component_of_CURRENTS"},"data":[0,0,0,0,0,0,0,0,0,0,0,0,0,0,0,0,0,0,0,0,0,0,0,0,0,0,0,0,0,0,0,0,0,0,0,0,0,0,0,0,0,0,0,0,0,0,0,0,0,0,0,0,0,0,0,0,0,0,0.2615,0.2616,0,0.2687,0.2687,0.2688,0.2722,0.2723,0.2723,0.2723,0.2758,0.2758,0.2759,0,0,0,0,0,0,0,0,0,0,0,0,0,0.2538,0.2539,0.2615,0.2616,0.2618,0.2686,0.2687,0.2688,0.2722,0.2723,0.2723,0.2724,0.2757,0.2758,0.2759,0,0,0,0,0,0,0,0,0,0,0,0,0,0.2583,0.2539,0.2615,0.2646,0.265,0.2686,0.2687,0.2688,0.2722,0.2723,0.2723,0.2724,0.2757,0.2758,0.2759,0.2755,0,0,0.2762,0.2762,0,0,0,0,0,0,0,0,0.2581,0.2586,0.264,0.2644,0.2648,0.2699,0.2673,0.271,0.2722,0.2691,0.2723,0.2724,0.2737,0.2739,0.2747,0.2756,0.2758,0.2762,0.2762,0.2763,0.2763,0,0,0,0,0,0,0,0.2577,0.2583,0.264,0.2642,0.2646,0.2667,0.2673,0.268,0.2707,0.2694,0.2697,0.2711,0.2738,0.2746,0.2748,0.2758,0.2762,0.2763,0.2763,0.2763,0.2802,0.2803,0,0,0,0,0,0,0.2574,0.258,0.2638,0.2642,0.2619,0.2668,0.2675,0.2679,0.2708,0.2714,0.271,0.2712,0.2744,0.2747,0.2749,0.275,0.2763,0.2764,0.2764,0.2802,0.2802,0.2803,0,0,0,0,0,0,0.2572,0.2578,0.2635,0.2616,0.2625,0.2669,0.2674,0.2681,0.2685,0.2721,0.2726,0.2708,0.2745,0.2748,0.2757,0.2751,0.2764,0.2765,0.2801,0.2802,0.2803,0.2748,0,0,0,0,0,0,0.2569,0.2576,0.2571,0.2615,0.2626,0.2644,0.2674,0.2682,0.2695,0.2698,0.272,0.2725,0.2745,0.2756,0.2758,0.2753,0.2765,0.2801,0.2802,0.2802,0.2749,0.2747,0.2745,0,0,0,0,0,0.2566,0.2555,0.257,0.2577,0.262,0.2644,0.2649,0.2681,0.2694,0.2687,0.2713,0.2724,0.2764,0.2756,0.2759,0.2754,0.28,0.2801,0.2802,0.275,0.2747,0.2745,0,0,0,0,0,0,0.2512,0.2559,0.2577,0.2579,0.2605,0.265,0.265,0.2672,0.2687,0.269,0.2721,0.2726,0.2736,0.2754,0.2745,0.2772,0.2787,0.2789,0.2747,0.2744,0.2742,0.2727,0.2766,0,0,0,0,0,0.25,0.2506,0.2552,0.2551,0.2564,0.2604,0.2616,0.2639,0.2665,0.2672,0.269,0.2718,0.2743,0.275,0.2771,0.2774,0.2802,0.2779,0.2776,0.2774,0.2767,0.2828,0.283,0.2806,0.2806,0.2806,0,0,0.2479,0.2506,0.2509,0.2541,0.2564,0.2579,0.2611,0.2625,0.2635,0.2672,0.2677,0.2704,0.2744,0.2756,0.2762,0.2768,0.2791,0.2775,0.2773,0.2767,0.2829,0.2831,0.2833,0.2807,0.2807,0.2807,0,0,0.2452,0.2463,0.2468,0.2487,0.2524,0.2549,0.255,0.2588,0.26,0.2613,0.2651,0.2673,0.2699,0.2731,0.2752,0.2749,0.2778,0.2758,0.2729,0.2788,0.279,0.2792,0.2806,0.281,0.2756,0.2755,0.2755,0,0.2425,0.244,0.2469,0.2482,0.2494,0.2532,0.2538,0.2556,0.259,0.2595,0.2606,0.2663,0.269,0.2722,0.2725,0.2741,0.2768,0.2731,0.2784,0.2787,0.279,0.2804,0.2809,0.2753,0.2753,0.2754,0.2754,0,0.2414,0.2422,0.2421,0.2452,0.2463,0.2469,0.2505,0.2508,0.2525,0.255,0.2573,0.2617,0.2652,0.2669,0.2693,0.273,0.2737,0.2773,0.2785,0.2789,0.2803,0.2809,0.2749,0.275,0.2751,0.2752,0,0,0.237,0.2407,0.2407,0.2415,0.2447,0.2455,0.246,0.2479,0.2482,0.2512,0.252,0.2571,0.2594,0.262,0.266,0.2706,0.2743,0.2741,0.2746,0.2742,0.2843,0.2781,0.2782,0.2794,0.2796,0.2797,0.2834,0,0.2354,0.2368,0.2389,0.2389,0.2397,0.2419,0.2421,0.2439,0.2457,0.2468,0.2518,0.2544,0.2579,0.2597,0.2646,0.2728,0.2761,0.2727,0.285,0.2853,0.2789,0.2789,0.2658,0.2675,0.284,0.2842,0.2842,0,0.2344,0.2355,0.2356,0.2363,0.2366,0.2365,0.2367,0.2375,0.2401,0.2417,0.2449,0.2489,0.2548,0.2584,0.2707,0.2686,0.2751,0.2811,0.2815,0.2781,0.2803,0.2706,0.2681,0.2552,0.2852,0.2852,0.2851,0,0.2316,0.2328,0.2324,0.2329,0.2346,0.2335,0.2337,0.2354,0.2355,0.2386,0.239,0.2466,0.2503,0.2609,0.2711,0.2722,0.2841,0.2879,0.2876,0.2871,0.2794,0.278,0.2649,0.2962,0.2961,0.2961,0.2961,0,0.2298,0.2294,0.2307,0.2307,0.2289,0.2305,0.2285,0.2299,0.231,0.2307,0.2363,0.2378,0.2517,0.2593,0.2697,0.2788,0.2834,0.2859,0.2882,0.2768,0.2752,0.2665,0.2639,0.2963,0.2962,0.2962,0.2962,0,0.2278,0.2289,0.2286,0.2288,0.2281,0.2268,0.2251,0.2237,0.2255,0.2252,0.2261,0.2326,0.2416,0.2533,0.2694,0.2754,0.2765,0.2883,0.2709,0.2709,0.2576,0.2554,0.2393,0.2358,0.2882,0.2881,0.288,0,0.2273,0.2272,0.2269,0.2253,0.225,0.2227,0.2206,0.2213,0.2197,0.2218,0.2213,0.228,0.2314,0.2488,0.2617,0.2752,0.2688,0.2696,0.2697,0.2528,0.2522,0.2414,0.2392,0.2567,0.2564,0.2561,0.2559,0,0.2257,0.2258,0.2252,0.2222,0.2195,0.216,0.213,0.2113,0.2115,0.2111,0.2109,0.2135,0.2268,0.2324,0.2478,0.2568,0.2512,0.264,0.2527,0.2301,0.2116,0.2107,0.2556,0.2533,0.2535,0.2537,0.2539,0.254,0.2238,0.2226,0.221,0.2171,0.2141,0.2081,0.2023,0.2005,0.1968,0.1934,0.2,0.2005,0.2072,0.2265,0.2318,0.2282,0.2356,0.224,0.2238,0.2151,0.2065,0.2425,0.2395,0.2397,0.2398,0.2399,0.2401,0,0.2189,0.2172,0.2148,0.2086,0.202,0.2021,0.1954,0.1885,0.1819,0.1844,0.1829,0.184,0.1846,0.1909,0.1928,0.1878,0.1842,0.1821,0.1637,0.1657,0.2022,0.1954,0.175,0.175,0.175,0.175,0.175,0.175,0.216,0.2113,0.2094,0.1971,0.192,0.1792,0.1737,0.1673,0.1662,0.1601,0.159,0.1623,0.161,0.1518,0.1427,0.1444,0.1356,0.1266,0.1328,0.156,0.1598,0.1634,0.1558,0.1275,0.1275,0.087,0.0866,0.0864]},{"header":{"parameterUnit":"m.s-1","parameterCategory":2,"la1":30.2991,"la2":30.254,"lo1":-89.0895,"lo2":-89.0444,"dy":0.0017,"dx":0.0017,"nx":28,"ny":28,"refTime":"2025-02-03T03:00:00:Z","depth":"0","parameterNumber":3,"parameterNumberName":"V-component_of_CURRENTS"},"data":[0,0,0,0,0,0,0,0,0,0,0,0,0,0,0,0,0,0,0,0,0,0,0,0,0,0,0,0,0,0,0,0,0,0,0,0,0,0,0,0,0,0,0,0,0,0,0,0,0,0,0,0,0,0,0,0,0,0,0.0807,0.0807,0,0.0782,0.0782,0.0781,0.0762,0.0762,0.0762,0.0761,0.072,0.0719,0.0718,0,0,0,0,0,0,0,0,0,0,0,0,0,0.0822,0.0822,0.0808,0.0807,0.0807,0.0782,0.0782,0.0781,0.0762,0.0762,0.0762,0.0761,0.0721,0.0719,0.0718,0,0,0,0,0,0,0,0,0,0,0,0,0,0.0807,0.0822,0.0808,0.0795,0.0794,0.0782,0.0782,0.0781,0.0762,0.0762,0.0761,0.0761,0.0721,0.0719,0.0718,0.0712,0,0,0.0713,0.0713,0,0,0,0,0,0,0,0,0.0808,0.0807,0.0797,0.0796,0.0794,0.0776,0.0772,0.0758,0.0762,0.0773,0.0761,0.0761,0.0738,0.0735,0.073,0.071,0.0708,0.0713,0.0712,0.0712,0.0711,0,0,0,0,0,0,0,0.0809,0.0808,0.0797,0.0797,0.0795,0.0785,0.0783,0.0769,0.0756,0.0772,0.0771,0.0769,0.0737,0.0731,0.0728,0.0708,0.0713,0.0712,0.0711,0.071,0.0722,0.0723,0,0,0,0,0,0,0.0815,0.0809,0.0797,0.0796,0.0802,0.0785,0.0782,0.0781,0.0756,0.0753,0.077,0.0769,0.0734,0.073,0.0727,0.0753,0.0712,0.071,0.0709,0.072,0.0722,0.0723,0,0,0,0,0,0,0.0816,0.0815,0.0798,0.0802,0.08,0.0785,0.0784,0.0781,0.0775,0.0755,0.0751,0.0767,0.0734,0.0729,0.0726,0.075,0.071,0.0708,0.0719,0.0721,0.0722,0.0783,0,0,0,0,0,0,0.0816,0.0815,0.0813,0.0803,0.08,0.0794,0.0784,0.078,0.0775,0.0774,0.0751,0.0747,0.0733,0.0729,0.0725,0.0747,0.0707,0.0717,0.072,0.0722,0.0779,0.0786,0.0793,0,0,0,0,0,0.0817,0.0815,0.0813,0.0811,0.0798,0.0794,0.0791,0.0779,0.0775,0.0774,0.0767,0.0748,0.0741,0.0728,0.0724,0.0746,0.0716,0.0719,0.0722,0.0776,0.0785,0.0792,0,0,0,0,0,0,0.0819,0.0812,0.081,0.0805,0.0802,0.0791,0.0788,0.0782,0.0775,0.0775,0.0756,0.0752,0.0762,0.0745,0.0732,0.0757,0.0728,0.073,0.0771,0.0779,0.0786,0.0799,0.0706,0,0,0,0,0,0.0819,0.0816,0.0811,0.0808,0.0809,0.08,0.0796,0.079,0.0784,0.078,0.0767,0.0762,0.0769,0.0766,0.0762,0.0767,0.0756,0.0782,0.0788,0.0794,0.0803,0.0821,0.0831,0.0732,0.0732,0.0732,0,0,0.0821,0.0816,0.0815,0.0808,0.0806,0.0811,0.0797,0.0795,0.0807,0.0777,0.0786,0.0781,0.0777,0.0792,0.0795,0.0779,0.0813,0.0797,0.0802,0.0808,0.0825,0.0835,0.0843,0.0734,0.0733,0.0733,0,0,0.0824,0.0819,0.082,0.0821,0.0819,0.0816,0.0818,0.0811,0.0817,0.0823,0.0819,0.0833,0.0819,0.0836,0.0841,0.0881,0.0849,0.0874,0.0916,0.0934,0.0942,0.0949,0.093,0.0935,0.0876,0.0876,0.0876,0,0.0825,0.0827,0.082,0.0825,0.0831,0.0822,0.0833,0.084,0.0834,0.0847,0.0832,0.0856,0.0849,0.0893,0.0911,0.0898,0.0885,0.0885,0.0943,0.095,0.0956,0.0935,0.094,0.0879,0.0879,0.0879,0.0878,0,0.0832,0.0838,0.0841,0.0847,0.0852,0.0859,0.0871,0.0877,0.088,0.0889,0.0924,0.0927,0.0942,0.0948,0.094,0.099,0.0957,0.095,0.0922,0.097,0.0944,0.0948,0.0884,0.0883,0.0882,0.0881,0,0,0.0823,0.0842,0.0843,0.0856,0.0867,0.0872,0.0899,0.0923,0.0948,0.0955,0.0995,0.1023,0.1024,0.1032,0.1032,0.1052,0.1082,0.102,0.102,0.1001,0.1092,0.1055,0.1055,0.1081,0.1083,0.1084,0.105,0,0.0831,0.0848,0.0858,0.0883,0.0896,0.0908,0.0937,0.0959,0.0978,0.1012,0.1042,0.1075,0.1059,0.1073,0.1094,0.1095,0.1098,0.109,0.105,0.1048,0.101,0.1061,0.1074,0.1045,0.1053,0.1054,0.1054,0,0.0834,0.0845,0.087,0.0909,0.0917,0.0932,0.0974,0.1001,0.1051,0.107,0.1109,0.1126,0.1176,0.1148,0.1171,0.1163,0.1131,0.112,0.1118,0.1068,0.102,0.1003,0.1051,0.0959,0.106,0.1059,0.1059,0,0.0827,0.0858,0.0879,0.089,0.0926,0.0946,0.0969,0.1014,0.1053,0.111,0.1143,0.1189,0.1222,0.1213,0.1196,0.1182,0.1201,0.1177,0.1106,0.11,0.1098,0.109,0.1056,0.1178,0.1178,0.1178,0.1178,0,0.0831,0.0848,0.0876,0.0885,0.0918,0.0948,0.0994,0.1021,0.1086,0.1146,0.1175,0.1233,0.1242,0.1256,0.1218,0.1182,0.1216,0.1124,0.1104,0.1116,0.1111,0.1017,0.0979,0.1177,0.1177,0.1177,0.1177,0,0.0821,0.084,0.0862,0.0899,0.0913,0.0935,0.1003,0.1046,0.1098,0.1179,0.1205,0.1274,0.13,0.1283,0.1271,0.1211,0.114,0.1141,0.1136,0.1117,0.0957,0.0922,0.0911,0.0893,0.106,0.1059,0.1058,0,0.0816,0.0825,0.086,0.0879,0.0895,0.0936,0.0977,0.104,0.1099,0.121,0.126,0.131,0.1364,0.1325,0.1248,0.117,0.1115,0.1091,0.1076,0.096,0.0907,0.091,0.0897,0.1084,0.1083,0.1083,0.1082,0,0.0804,0.0815,0.0834,0.0871,0.0907,0.0962,0.1028,0.1076,0.1171,0.1243,0.1344,0.1395,0.138,0.1337,0.1225,0.1167,0.1054,0.1076,0.0982,0.0948,0.093,0.0898,0.1059,0.1079,0.1079,0.108,0.108,0.108,0.079,0.0801,0.083,0.0868,0.0916,0.0992,0.1039,0.1127,0.1222,0.1341,0.1391,0.1474,0.1408,0.1282,0.118,0.0981,0.101,0.0909,0.088,0.0896,0.0878,0.1008,0.0991,0.099,0.099,0.099,0.099,0,0.0773,0.0799,0.0833,0.0886,0.0942,0.0976,0.1081,0.114,0.1245,0.1363,0.1447,0.1482,0.135,0.1213,0.0963,0.0811,0.08,0.0727,0.0739,0.0738,0.0871,0.0869,0.0795,0.0795,0.0795,0.0796,0.0796,0.0796,0.0767,0.0792,0.0819,0.0899,0.0944,0.1023,0.1083,0.1172,0.1268,0.1393,0.1466,0.1531,0.1437,0.1,0.0704,0.064,0.0561,0.055,0.0499,0.0569,0.0584,0.0598,0.0586,0.0454,0.0454,0.0409,0.0408,0.0407]}],[{"header":{"parameterUnit":"m.s-1","parameterCategory":2,"la1":30.2991,"la2":30.254,"lo1":-89.0895,"lo2":-89.0444,"dy":0.0017,"dx":0.0017,"nx":28,"ny":28,"refTime":"2025-02-03T03:00:00:Z","depth":"2","parameterNumber":2,"parameterNumberName":"U-component_of_CURRENTS"},"data":[0,0,0,0,0,0,0,0,0,0,0,0,0,0,0,0,0,0,0,0,0,0,0,0,0,0,0,0,0,0,0,0,0,0,0,0,0,0,0,0,0,0,0,0,0,0,0,0,0,0,0,0,0,0,0,0,0,0,0.1354,0.1354,0,0.1355,0.1355,0.1355,0.1397,0.1398,0.1399,0.1401,0.1429,0.1429,0.1428,0,0,0,0,0,0,0,0,0,0,0,0,0,0.1384,0.1383,0.1354,0.1354,0.1355,0.1355,0.1355,0.1355,0.1397,0.1398,0.14,0.1401,0.1429,0.1429,0.1428,0,0,0,0,0,0,0,0,0,0,0,0,0,0.1375,0.1383,0.1354,0.1377,0.1379,0.1355,0.1355,0.1355,0.1396,0.1398,0.14,0.1402,0.1429,0.1429,0.1428,0.1387,0,0,0.1426,0.1426,0,0,0,0,0,0,0,0,0.1376,0.1374,0.1373,0.1375,0.1378,0.1379,0.1376,0.1367,0.1396,0.1388,0.1401,0.1403,0.1415,0.1415,0.1409,0.1388,0.1389,0.1426,0.1426,0.1425,0.1425,0,0,0,0,0,0,0,0.1376,0.1374,0.1353,0.1373,0.1376,0.1385,0.1386,0.1374,0.139,0.1389,0.1392,0.1394,0.1416,0.1409,0.141,0.139,0.1426,0.1426,0.1425,0.1425,0.1424,0.1425,0,0,0,0,0,0,0.1377,0.1374,0.1353,0.1353,0.1383,0.1384,0.1384,0.1376,0.139,0.1394,0.1393,0.1396,0.1409,0.141,0.1411,0.1439,0.1425,0.1425,0.1425,0.1424,0.1424,0.1425,0,0,0,0,0,0,0.1378,0.1375,0.1353,0.1366,0.1364,0.1381,0.1371,0.1375,0.1395,0.1393,0.1398,0.1414,0.1411,0.1412,0.1424,0.1438,0.1425,0.1424,0.1423,0.1424,0.1424,0.1447,0,0,0,0,0,0,0.1378,0.1374,0.1375,0.1365,0.1364,0.1349,0.137,0.1373,0.1393,0.1398,0.1411,0.1414,0.1412,0.1425,0.1424,0.1437,0.1424,0.1423,0.1424,0.1424,0.1446,0.1449,0.1451,0,0,0,0,0,0.1379,0.1364,0.1374,0.1372,0.1361,0.1349,0.1348,0.1366,0.1392,0.1393,0.1412,0.1415,0.1429,0.1425,0.1423,0.1436,0.1423,0.1423,0.1424,0.1445,0.1448,0.1451,0,0,0,0,0,0,0.1374,0.1366,0.1378,0.1362,0.1364,0.1357,0.136,0.1376,0.1389,0.1406,0.1413,0.1416,0.1433,0.1428,0.1423,0.1438,0.1428,0.1429,0.1445,0.1447,0.145,0.1458,0.1423,0,0,0,0,0,0.1373,0.1363,0.136,0.1351,0.1353,0.1362,0.1365,0.1378,0.1386,0.1396,0.1407,0.142,0.1427,0.1435,0.1433,0.1435,0.1446,0.1445,0.1447,0.1449,0.1455,0.1474,0.1479,0.1427,0.1427,0.1427,0,0,0.1367,0.1364,0.1358,0.135,0.1355,0.1351,0.1369,0.1375,0.1383,0.1394,0.1414,0.1426,0.1429,0.1437,0.1445,0.1441,0.1472,0.145,0.1452,0.1456,0.1476,0.1481,0.1486,0.1428,0.1428,0.1428,0,0,0.1348,0.1351,0.134,0.134,0.135,0.1354,0.1363,0.137,0.1389,0.14,0.1419,0.144,0.1443,0.1452,0.1456,0.1467,0.1482,0.1474,0.1493,0.1512,0.1517,0.1521,0.1553,0.156,0.1477,0.1477,0.1477,0,0.1349,0.1332,0.1335,0.1328,0.1334,0.1359,0.1356,0.1367,0.1382,0.1401,0.1412,0.1444,0.1448,0.1468,0.148,0.1472,0.1495,0.1483,0.1516,0.152,0.1524,0.1556,0.1563,0.1478,0.1478,0.1478,0.1478,0,0.1317,0.1316,0.131,0.1312,0.1316,0.1317,0.1335,0.1354,0.1386,0.1403,0.144,0.145,0.1475,0.148,0.1485,0.1519,0.1531,0.1516,0.1511,0.1531,0.1563,0.157,0.148,0.1479,0.1479,0.1479,0,0,0.1292,0.1289,0.1292,0.1299,0.1313,0.1312,0.1332,0.1355,0.1383,0.1411,0.1445,0.1468,0.1497,0.1504,0.1519,0.154,0.159,0.155,0.155,0.1585,0.1655,0.1574,0.1574,0.1589,0.159,0.1591,0.1671,0,0.1276,0.1262,0.1266,0.1269,0.1269,0.1299,0.1313,0.1344,0.1379,0.1415,0.1453,0.1485,0.1499,0.1523,0.155,0.158,0.1609,0.1571,0.1627,0.1629,0.1556,0.1578,0.1388,0.1435,0.1678,0.168,0.168,0,0.1249,0.1246,0.1241,0.1261,0.1265,0.1275,0.1319,0.1335,0.139,0.142,0.147,0.1502,0.1556,0.1553,0.1629,0.1612,0.1641,0.166,0.1662,0.1582,0.156,0.1451,0.1439,0.1692,0.1691,0.1691,0.169,0,0.1233,0.1234,0.1235,0.1239,0.1258,0.1278,0.13,0.1346,0.1369,0.1435,0.1463,0.1528,0.1565,0.1615,0.1672,0.1659,0.1749,0.1726,0.1682,0.1677,0.1522,0.15,0.1772,0.1772,0.1772,0.1772,0.1771,0,0.1212,0.1217,0.1234,0.1234,0.1249,0.1272,0.1302,0.1334,0.1384,0.1415,0.1474,0.151,0.1584,0.1644,0.1689,0.1715,0.1766,0.1692,0.1689,0.1524,0.1503,0.1724,0.1718,0.1775,0.1774,0.1773,0.1773,0,0.1194,0.1203,0.1207,0.123,0.1241,0.1256,0.1296,0.1316,0.1369,0.1413,0.1437,0.1513,0.1599,0.1671,0.1752,0.172,0.1759,0.1756,0.1566,0.1536,0.1674,0.1668,0.1704,0.1702,0.17,0.1698,0.1697,0,0.1181,0.118,0.12,0.1205,0.122,0.1245,0.126,0.1308,0.1331,0.1412,0.1431,0.1526,0.1572,0.1659,0.1622,0.1663,0.1768,0.1508,0.1424,0.1672,0.1666,0.1663,0.1659,0.1244,0.1239,0.1235,0.1232,0,0.1154,0.1168,0.1169,0.1183,0.12,0.1209,0.1243,0.1254,0.1315,0.1352,0.1418,0.146,0.1498,0.143,0.1447,0.1442,0.1479,0.1423,0.1738,0.1278,0.124,0.1233,0.1245,0.1196,0.1199,0.1202,0.1204,0.1205,0.1138,0.1134,0.1144,0.1158,0.1173,0.1182,0.1184,0.1213,0.1241,0.1264,0.134,0.1314,0.1277,0.118,0.118,0.1158,0.1252,0.1191,0.1203,0.1219,0.1138,0.1098,0.1013,0.1016,0.1018,0.102,0.1022,0,0.1111,0.1117,0.1119,0.1127,0.1127,0.1163,0.1174,0.1154,0.1169,0.1142,0.117,0.0969,0.0912,0.0943,0.0809,0.0786,0.0771,0.0801,0.0772,0.0806,0.0836,0.0737,0.0505,0.0505,0.0504,0.0503,0,0,0.1095,0.1084,0.1086,0.1081,0.1103,0.1107,0.1114,0.1074,0.1027,0.0894,0.0806,0.0824,0.0823,0.0626,0.0607,0.0553,0.0684,0.0523,0.092,0.0915,0.0945,0.1025,0.0904,0,0,0,0,0]},{"header":{"parameterUnit":"m.s-1","parameterCategory":2,"la1":30.2991,"la2":30.254,"lo1":-89.0895,"lo2":-89.0444,"dy":0.0017,"dx":0.0017,"nx":28,"ny":28,"refTime":"2025-02-03T03:00:00:Z","depth":"2","parameterNumber":3,"parameterNumberName":"V-component_of_CURRENTS"},"data":[0,0,0,0,0,0,0,0,0,0,0,0,0,0,0,0,0,0,0,0,0,0,0,0,0,0,0,0,0,0,0,0,0,0,0,0,0,0,0,0,0,0,0,0,0,0,0,0,0,0,0,0,0,0,0,0,0,0,-0.0509,-0.051,0,-0.0549,-0.055,-0.055,-0.0584,-0.0584,-0.0584,-0.0585,-0.0649,-0.065,-0.0652,0,0,0,0,0,0,0,0,0,0,0,0,0,-0.0481,-0.0481,-0.0509,-0.051,-0.051,-0.0549,-0.055,-0.055,-0.0584,-0.0584,-0.0584,-0.0585,-0.0648,-0.065,-0.0652,0,0,0,0,0,0,0,0,0,0,0,0,0,-0.0504,-0.0481,-0.0509,-0.0531,-0.0534,-0.0549,-0.055,-0.055,-0.0583,-0.0584,-0.0584,-0.0585,-0.0648,-0.065,-0.0652,-0.0655,0,0,-0.0658,-0.0659,0,0,0,0,0,0,0,0,-0.0503,-0.0505,-0.0528,-0.053,-0.0533,-0.0562,-0.0563,-0.0586,-0.0583,-0.0565,-0.0585,-0.0585,-0.0621,-0.0626,-0.0632,-0.0658,-0.0661,-0.0658,-0.066,-0.0661,-0.0661,0,0,0,0,0,0,0,-0.0501,-0.0504,-0.0525,-0.0528,-0.0531,-0.0546,-0.0549,-0.0568,-0.059,-0.0567,-0.0569,-0.0573,-0.0623,-0.063,-0.0634,-0.0661,-0.0658,-0.066,-0.0662,-0.0662,-0.0714,-0.0714,0,0,0,0,0,0,-0.0494,-0.0502,-0.0524,-0.0527,-0.0518,-0.0546,-0.055,-0.0552,-0.059,-0.0596,-0.0572,-0.0574,-0.0626,-0.0631,-0.0636,-0.0638,-0.0661,-0.0663,-0.0664,-0.0714,-0.0714,-0.0714,0,0,0,0,0,0,-0.0493,-0.0496,-0.0523,-0.0515,-0.052,-0.0545,-0.0548,-0.0553,-0.0565,-0.0594,-0.0601,-0.058,-0.0627,-0.0633,-0.0656,-0.0641,-0.0664,-0.0665,-0.0713,-0.0714,-0.0714,-0.0643,0,0,0,0,0,0,-0.0492,-0.0495,-0.0495,-0.0515,-0.052,-0.0528,-0.0547,-0.0553,-0.0566,-0.0569,-0.0602,-0.0609,-0.0628,-0.0653,-0.0658,-0.0644,-0.0667,-0.0713,-0.0714,-0.0714,-0.0645,-0.0641,-0.0637,0,0,0,0,0,-0.0491,-0.0486,-0.0494,-0.0497,-0.0518,-0.0528,-0.0532,-0.0552,-0.0565,-0.0566,-0.0593,-0.0608,-0.0658,-0.0654,-0.0661,-0.0647,-0.0713,-0.0713,-0.0714,-0.0647,-0.0642,-0.0637,0,0,0,0,0,0,-0.0474,-0.0489,-0.0499,-0.0499,-0.0512,-0.0533,-0.0535,-0.0551,-0.0573,-0.0578,-0.0609,-0.0616,-0.0631,-0.0654,-0.0649,-0.0665,-0.0688,-0.069,-0.0636,-0.0631,-0.0627,-0.0605,-0.0669,0,0,0,0,0,-0.0469,-0.047,-0.0487,-0.0488,-0.0492,-0.0514,-0.0522,-0.0536,-0.0557,-0.0567,-0.059,-0.0617,-0.0636,-0.0645,-0.0669,-0.0675,-0.0679,-0.0673,-0.0669,-0.0665,-0.0653,-0.0651,-0.0644,-0.0715,-0.0715,-0.0715,0,0,-0.0463,-0.0472,-0.0473,-0.0484,-0.0496,-0.0494,-0.052,-0.0529,-0.0528,-0.057,-0.0578,-0.0605,-0.0637,-0.0644,-0.0652,-0.066,-0.0646,-0.0665,-0.0661,-0.0652,-0.065,-0.0643,-0.0636,-0.0715,-0.0715,-0.0715,0,0,-0.0448,-0.0458,-0.0452,-0.0456,-0.0469,-0.0481,-0.0483,-0.0504,-0.0513,-0.0526,-0.0555,-0.0568,-0.0605,-0.0613,-0.0624,-0.0613,-0.0627,-0.0629,-0.0583,-0.058,-0.0574,-0.0568,-0.0552,-0.0546,-0.0622,-0.0622,-0.0622,0,-0.0442,-0.0433,-0.0451,-0.0443,-0.044,-0.0473,-0.046,-0.0473,-0.05,-0.0498,-0.0523,-0.0557,-0.0584,-0.0578,-0.0576,-0.0599,-0.0601,-0.0594,-0.0571,-0.0566,-0.0561,-0.0547,-0.0541,-0.0619,-0.0619,-0.0619,-0.062,0,-0.0418,-0.0411,-0.0406,-0.0404,-0.0404,-0.0399,-0.0414,-0.0419,-0.0438,-0.0449,-0.0456,-0.0491,-0.0508,-0.052,-0.0545,-0.0525,-0.0538,-0.0567,-0.0576,-0.0549,-0.0537,-0.0531,-0.0614,-0.0615,-0.0616,-0.0617,0,0,-0.0405,-0.0391,-0.0389,-0.0375,-0.038,-0.0375,-0.0368,-0.0364,-0.0352,-0.0382,-0.0363,-0.0398,-0.0419,-0.0434,-0.0464,-0.046,-0.0429,-0.0496,-0.0498,-0.0465,-0.0412,-0.0361,-0.0351,-0.0455,-0.0454,-0.0453,-0.0411,0,-0.0381,-0.035,-0.0351,-0.0321,-0.0303,-0.0315,-0.0301,-0.0302,-0.0312,-0.0305,-0.0333,-0.0339,-0.0386,-0.0394,-0.0396,-0.043,-0.0414,-0.0437,-0.0457,-0.0457,-0.0401,-0.0343,-0.0372,-0.0332,-0.0406,-0.0405,-0.0405,0,-0.0353,-0.0335,-0.0298,-0.0267,-0.026,-0.025,-0.0224,-0.0218,-0.0215,-0.0221,-0.0228,-0.0258,-0.0263,-0.0311,-0.0328,-0.0343,-0.0366,-0.0387,-0.0387,-0.0358,-0.0395,-0.0375,-0.032,-0.0396,-0.0397,-0.0397,-0.0398,0,-0.0324,-0.0295,-0.0261,-0.025,-0.0226,-0.0211,-0.0205,-0.0193,-0.0178,-0.0173,-0.0161,-0.0179,-0.0189,-0.0222,-0.0266,-0.0302,-0.0273,-0.0331,-0.0297,-0.0294,-0.0331,-0.0332,-0.0322,-0.0322,-0.0322,-0.0322,-0.0322,0,-0.0289,-0.0262,-0.0248,-0.0227,-0.0188,-0.0183,-0.0147,-0.0139,-0.0124,-0.0091,-0.0123,-0.0097,-0.017,-0.0169,-0.0222,-0.0222,-0.0237,-0.0263,-0.027,-0.0306,-0.0305,-0.0381,-0.0389,-0.032,-0.0321,-0.0321,-0.0321,0,-0.0256,-0.0247,-0.0206,-0.0179,-0.0172,-0.0146,-0.0121,-0.0092,-0.0084,-0.0042,-0.0039,-0.0035,-0.0021,-0.0065,-0.01,-0.0151,-0.0168,-0.0163,-0.0186,-0.0196,-0.0207,-0.0212,-0.0131,-0.0129,-0.0127,-0.0125,-0.0123,0,-0.0233,-0.0209,-0.0174,-0.0154,-0.0144,-0.0114,-0.009,-0.0076,-0.0044,0.0006,0.0036,0.0066,0.0128,0.0117,0.0023,-0.0017,-0.0062,-0.0081,-0.015,-0.0167,-0.0183,-0.0191,-0.0199,-0.0178,-0.0177,-0.0176,-0.0175,0,-0.0188,-0.0179,-0.0149,-0.0114,-0.0087,-0.0046,-0.0015,0.0019,0.0048,0.0104,0.0189,0.0251,0.0244,0.0207,0.0151,0.0092,-0.0081,-0.0066,-0.0074,-0.0209,-0.0204,-0.0223,-0.023,-0.0169,-0.017,-0.017,-0.0171,-0.0171,-0.0158,-0.0131,-0.0102,-0.0066,-0.0033,0.0022,0.0059,0.0119,0.0199,0.0314,0.0342,0.0436,0.0325,0.0282,0.019,0.0042,0.0028,-0.0063,-0.0069,-0.0074,-0.0075,-0.0065,-0.0004,-0.0004,-0.0004,-0.0003,-0.0003,0,-0.0121,-0.0096,-0.0057,-0.001,0.0033,0.0037,0.0112,0.0178,0.0294,0.042,0.054,0.0475,0.0452,0.0322,0.011,0.0013,-0.0043,-0.0024,-0.0103,-0.0109,-0.0114,-0.012,-0.006,-0.0059,-0.0059,-0.0059,0,0,-0.0098,-0.0058,-0.0038,0.0036,0.0064,0.0121,0.0165,0.0294,0.039,0.0551,0.0602,0.07,0.049,0.0334,0.0176,0.0056,0.0004,0.0036,0.0084,0.0003,0.0,-0.014,-0.0155,0,0,0,0,0]}],[{"header":{"parameterUnit":"m.s-1","parameterCategory":2,"la1":30.2991,"la2":30.254,"lo1":-89.0895,"lo2":-89.0444,"dy":0.0017,"dx":0.0017,"nx":28,"ny":28,"refTime":"2025-02-03T03:00:00:Z","depth":"4","parameterNumber":2,"parameterNumberName":"U-component_of_CURRENTS"},"data":[0,0,0,0,0,0,0,0,0,0,0,0,0,0,0,0,0,0,0,0,0,0,0,0,0,0,0,0,0,0,0,0,0,0,0,0,0,0,0,0,0,0,0,0,0,0,0,0,0,0,0,0,0,0,0,0,0,0,-0.0045,-0.0045,0,-0.005,-0.005,-0.005,-0.0028,-0.0028,-0.0027,-0.0027,0.0024,0.0024,0.0025,0,0,0,0,0,0,0,0,0,0,0,0,0,-0.0047,-0.0047,-0.0045,-0.0045,-0.0045,-0.005,-0.005,-0.005,-0.0028,-0.0028,-0.0027,-0.0026,0.0023,0.0024,0.0025,0,0,0,0,0,0,0,0,0,0,0,0,0,-0.0047,-0.0047,-0.0045,-0.0036,-0.0035,-0.005,-0.005,-0.005,-0.0029,-0.0028,-0.0027,-0.0026,0.0023,0.0024,0.0025,0.0017,0,0,0.0029,0.003,0,0,0,0,0,0,0,0,-0.0047,-0.0047,-0.0037,-0.0037,-0.0036,-0.0038,-0.0032,-0.0025,-0.0029,-0.003,-0.0027,-0.0026,0.0007,0.001,0.0007,0.0019,0.0021,0.0029,0.003,0.0031,0.0031,0,0,0,0,0,0,0,-0.0047,-0.0047,-0.0046,-0.0037,-0.0037,-0.0041,-0.004,-0.0031,-0.0015,-0.003,-0.0029,-0.0031,0.0008,0.0006,0.0009,0.0022,0.0029,0.003,0.0031,0.0032,0.0112,0.0113,0,0,0,0,0,0,-0.0048,-0.0047,-0.0046,-0.0046,-0.004,-0.0042,-0.004,-0.0038,-0.0016,-0.0013,-0.0031,-0.003,0.0003,0.0007,0.0011,0.0079,0.0031,0.0032,0.0033,0.0111,0.0112,0.0114,0,0,0,0,0,0,-0.0048,-0.0047,-0.0046,-0.0048,-0.0048,-0.0042,-0.004,-0.0038,-0.0023,-0.0018,-0.0013,-0.0016,0.0004,0.0009,0.004,0.0079,0.0032,0.0033,0.0109,0.0111,0.0113,0.0167,0,0,0,0,0,0,-0.0048,-0.0047,-0.0041,-0.0048,-0.0048,-0.0047,-0.004,-0.0039,-0.0027,-0.0025,-0.0003,0.0001,0.0005,0.0038,0.0041,0.0079,0.0034,0.0107,0.011,0.0112,0.0163,0.017,0.0177,0,0,0,0,0,-0.0047,-0.0048,-0.004,-0.004,-0.0041,-0.0047,-0.0048,-0.0041,-0.0027,-0.0023,0.0001,0.0001,0.0057,0.0039,0.0043,0.0083,0.0106,0.0109,0.0112,0.016,0.0169,0.0176,0,0,0,0,0,0,-0.0051,-0.0046,-0.0038,-0.0037,-0.0037,-0.0044,-0.0041,-0.0033,-0.0013,0.0005,0.0011,0.0017,0.0059,0.006,0.0041,0.0114,0.0085,0.0089,0.012,0.0129,0.0135,0.0141,0.0035,0,0,0,0,0,-0.0048,-0.0043,-0.0041,-0.0041,-0.0038,-0.0034,-0.0033,-0.0021,-0.0009,0.0001,0.0023,0.0049,0.007,0.0091,0.0106,0.0142,0.013,0.0172,0.0179,0.0184,0.0192,0.0201,0.0209,0.0124,0.0124,0.0124,0,0,-0.0055,-0.0048,-0.0047,-0.0041,-0.0039,-0.0032,-0.0031,-0.0018,0.0003,0.0005,0.005,0.007,0.0082,0.0126,0.0146,0.0136,0.0202,0.0188,0.0193,0.0198,0.0205,0.0213,0.022,0.0126,0.0126,0.0125,0,0,-0.0063,-0.0052,-0.0047,-0.0041,-0.0025,-0.002,-0.0012,0.0007,0.0031,0.0071,0.0083,0.0124,0.0159,0.018,0.0191,0.0242,0.023,0.0258,0.0306,0.0315,0.0321,0.0327,0.0317,0.0321,0.0269,0.0269,0.0269,0,-0.0065,-0.0059,-0.0049,-0.0039,-0.0027,-0.0012,0.0004,0.0021,0.0055,0.0088,0.0097,0.017,0.0183,0.0231,0.026,0.0258,0.0256,0.0273,0.0323,0.0328,0.0333,0.0321,0.0325,0.0272,0.0272,0.0271,0.0271,0,-0.007,-0.0058,-0.0056,-0.0033,-0.0016,-0.0004,0.0028,0.0064,0.0106,0.0134,0.0205,0.0229,0.0279,0.0293,0.0297,0.0352,0.0336,0.0322,0.03,0.0345,0.0329,0.0333,0.0276,0.0275,0.0274,0.0274,0,0,-0.0088,-0.0064,-0.0061,-0.0042,-0.0004,0.0008,0.0058,0.0106,0.0149,0.0205,0.0263,0.0318,0.0353,0.0369,0.0385,0.0402,0.0437,0.0393,0.0392,0.0378,0.0451,0.0386,0.0383,0.0438,0.0439,0.044,0.0423,0,-0.0092,-0.0077,-0.0052,-0.0024,-0.001,0.0038,0.0075,0.0133,0.0192,0.0252,0.0305,0.0363,0.0374,0.0417,0.0438,0.0439,0.0451,0.0443,0.0414,0.0413,0.0345,0.0386,0.0444,0.0426,0.0426,0.0427,0.0427,0,-0.0097,-0.0085,-0.006,-0.0009,0.0004,0.0036,0.0122,0.0166,0.0253,0.0306,0.0386,0.0422,0.0485,0.0475,0.0504,0.0504,0.0492,0.0478,0.0476,0.04,0.0354,0.0373,0.0433,0.0432,0.0432,0.0432,0.0431,0,-0.0115,-0.0083,-0.006,-0.0046,0.0008,0.0057,0.0107,0.0196,0.0249,0.036,0.0407,0.0478,0.052,0.053,0.0521,0.0529,0.0515,0.0514,0.0434,0.0428,0.0466,0.046,0.0521,0.0521,0.0521,0.0521,0.0521,0,-0.0122,-0.0107,-0.0063,-0.0052,-0.0003,0.0059,0.014,0.0201,0.0297,0.035,0.0445,0.0474,0.0539,0.054,0.053,0.0487,0.0524,0.0449,0.0426,0.0488,0.0485,0.0468,0.0462,0.052,0.052,0.052,0.052,0,-0.014,-0.0121,-0.01,-0.0041,-0.0011,0.0036,0.0155,0.0203,0.0303,0.0376,0.0417,0.0489,0.049,0.0504,0.0499,0.0485,0.0453,0.0418,0.047,0.0449,0.0361,0.0358,0.0357,0.0355,0.0353,0.0351,0.035,0,-0.0148,-0.0142,-0.0099,-0.0075,-0.0038,0.0045,0.0096,0.0205,0.0254,0.0356,0.0366,0.0411,0.0442,0.0394,0.0402,0.0376,0.0361,0.0364,0.0391,0.0369,0.0348,0.0348,0.0348,0.0347,0.0346,0.0346,0.0345,0,-0.0164,-0.0156,-0.0141,-0.01,-0.0048,0.0008,0.0092,0.0126,0.0234,0.0304,0.0339,0.0364,0.0345,0.0347,0.0326,0.0301,0.0387,0.0344,0.0349,0.0374,0.0356,0.0337,0.0339,0.0338,0.0339,0.034,0.034,0,-0.0179,-0.0178,-0.0162,-0.0117,-0.0073,-0.003,0.0024,0.0086,0.015,0.0264,0.0248,0.0286,0.0324,0.03,0.0266,0.0256,0.0261,0.0283,0.0292,0.0299,0.0286,0.0256,0.0195,0,0,0,0,0,-0.0184,-0.0185,-0.0169,-0.0127,-0.0091,-0.0059,0.001,0.006,0.0147,0.0163,0.0225,0.0209,0.0216,0.0217,0.0191,0.0204,0.0237,0.0173,0.0262,0.0301,0.0309,0.0298,0,0,0,0,0,0,-0.019,-0.0186,-0.0185,-0.0148,-0.0118,-0.0075,-0.0034,0.0021,0.0043,0.0127,0.0119,0.0191,0.0174,0.0218,0.0183,0.0183,0.0236,0.0191,0.0191,0.0296,0.0304,0.031,0.0301,0,0,0,0,0]},{"header":{"parameterUnit":"m.s-1","parameterCategory":2,"la1":30.2991,"la2":30.254,"lo1":-89.0895,"lo2":-89.0444,"dy":0.0017,"dx":0.0017,"nx":28,"ny":28,"refTime":"2025-02-03T03:00:00:Z","depth":"4","parameterNumber":3,"parameterNumberName":"V-component_of_CURRENTS"},"data":[0,0,0,0,0,0,0,0,0,0,0,0,0,0,0,0,0,0,0,0,0,0,0,0,0,0,0,0,0,0,0,0,0,0,0,0,0,0,0,0,0,0,0,0,0,0,0,0,0,0,0,0,0,0,0,0,0,0,0.0341,0.0341,0,0.0356,0.0356,0.0356,0.0376,0.0377,0.0377,0.0377,0.0344,0.0343,0.0341,0,0,0,0,0,0,0,0,0,0,0,0,0,0.0317,0.0317,0.0341,0.0341,0.0341,0.0356,0.0356,0.0356,0.0376,0.0377,0.0377,0.0378,0.0344,0.0343,0.0341,0,0,0,0,0,0,0,0,0,0,0,0,0,0.0328,0.0317,0.0341,0.0354,0.0355,0.0356,0.0356,0.0356,0.0376,0.0377,0.0377,0.0378,0.0345,0.0343,0.0341,0.0318,0,0,0.0335,0.0334,0,0,0,0,0,0,0,0,0.0328,0.0329,0.0352,0.0353,0.0354,0.0365,0.0335,0.0341,0.0376,0.0368,0.0377,0.0378,0.0346,0.0344,0.0346,0.0316,0.0315,0.0335,0.0334,0.0333,0.0333,0,0,0,0,0,0,0,0.0327,0.0329,0.0346,0.0352,0.0353,0.0354,0.0356,0.0336,0.0352,0.0368,0.037,0.0372,0.0347,0.0348,0.0345,0.0314,0.0335,0.0334,0.0332,0.0332,0.0287,0.0287,0,0,0,0,0,0,0.0326,0.0328,0.0346,0.0347,0.0343,0.0354,0.0357,0.0361,0.0353,0.0354,0.0372,0.0373,0.0351,0.0347,0.0344,0.0336,0.0333,0.0331,0.033,0.0287,0.0287,0.0287,0,0,0,0,0,0,0.0326,0.0328,0.0345,0.0338,0.034,0.0354,0.0358,0.0361,0.0378,0.0357,0.0356,0.0388,0.0351,0.0347,0.0347,0.0334,0.0331,0.0329,0.0287,0.0287,0.0287,0.0307,0,0,0,0,0,0,0.0325,0.0328,0.0336,0.0338,0.0341,0.0355,0.0358,0.0361,0.0378,0.038,0.037,0.0367,0.0351,0.035,0.0345,0.0332,0.0327,0.0287,0.0287,0.0287,0.0307,0.0308,0.0309,0,0,0,0,0,0.0324,0.033,0.0337,0.0339,0.035,0.0356,0.0358,0.0368,0.0378,0.0386,0.0386,0.0368,0.0345,0.0349,0.0343,0.0329,0.0287,0.0287,0.0287,0.0306,0.0308,0.0309,0,0,0,0,0,0,0.0322,0.0332,0.034,0.0349,0.0358,0.036,0.037,0.0377,0.0385,0.0395,0.0374,0.0371,0.0364,0.0347,0.0352,0.0316,0.031,0.0308,0.0326,0.0327,0.0329,0.0325,0.0326,0,0,0,0,0,0.0326,0.0338,0.0343,0.0354,0.0359,0.0369,0.0375,0.0387,0.039,0.0396,0.0384,0.0372,0.0355,0.0346,0.0331,0.0314,0.0294,0.0299,0.03,0.0301,0.0294,0.026,0.0257,0.0287,0.0287,0.0287,0,0,0.0329,0.0337,0.0345,0.0356,0.0365,0.0373,0.0375,0.0394,0.0401,0.0388,0.0393,0.038,0.0354,0.0339,0.0332,0.0325,0.0286,0.0301,0.0302,0.0294,0.026,0.0257,0.0254,0.0287,0.0287,0.0287,0,0,0.0335,0.0349,0.0359,0.0366,0.0386,0.0391,0.04,0.0408,0.0415,0.0418,0.0408,0.0393,0.0369,0.0345,0.033,0.0327,0.0298,0.0318,0.0313,0.0281,0.0278,0.0275,0.0261,0.0257,0.0312,0.0313,0.0313,0,0.0341,0.0353,0.0363,0.0371,0.0384,0.04,0.0414,0.0415,0.0424,0.0422,0.0424,0.0385,0.0368,0.0336,0.0333,0.0328,0.0311,0.0311,0.0282,0.0279,0.0276,0.0261,0.0256,0.0313,0.0313,0.0313,0.0313,0,0.0347,0.0363,0.037,0.0388,0.0402,0.042,0.0426,0.0433,0.0442,0.0437,0.042,0.0396,0.0366,0.0355,0.0342,0.0305,0.0303,0.0293,0.0279,0.0274,0.0259,0.0254,0.0315,0.0315,0.0314,0.0314,0,0,0.0344,0.0371,0.0376,0.0392,0.0419,0.0431,0.044,0.0446,0.0445,0.0438,0.0422,0.039,0.0373,0.0354,0.0329,0.0297,0.0266,0.0284,0.0281,0.027,0.0204,0.019,0.0183,0.0249,0.0248,0.0247,0.0208,0,0.0351,0.0375,0.0388,0.0418,0.0432,0.0449,0.045,0.0459,0.0457,0.0439,0.041,0.0388,0.0372,0.0355,0.032,0.0276,0.0249,0.0278,0.0209,0.0208,0.0196,0.0175,0.0244,0.0204,0.0203,0.0202,0.0201,0,0.035,0.037,0.0403,0.0434,0.0441,0.0464,0.0481,0.0483,0.0461,0.0451,0.0422,0.0395,0.0344,0.0335,0.0255,0.0273,0.0239,0.021,0.0208,0.018,0.0182,0.0206,0.0191,0.0192,0.0192,0.0193,0.0194,0,0.0345,0.038,0.0415,0.0427,0.0458,0.0481,0.0499,0.0495,0.0494,0.0462,0.0449,0.0388,0.0355,0.0299,0.0232,0.0241,0.0147,0.0153,0.0114,0.0114,0.0131,0.0134,0.0101,0.0101,0.0101,0.0101,0.0101,0,0.0342,0.0367,0.0422,0.044,0.0478,0.0497,0.0526,0.052,0.051,0.049,0.0458,0.0411,0.0341,0.0278,0.0227,0.0146,0.0141,0.0105,0.0094,0.0143,0.0148,0.0128,0.0131,0.01,0.01,0.01,0.0101,0,0.0327,0.0362,0.04,0.0453,0.048,0.0508,0.0561,0.0559,0.0552,0.0522,0.051,0.0428,0.0331,0.027,0.0168,0.0138,0.0067,0.0044,0.0107,0.0102,0.0063,0.0068,-0.0001,-0.0002,-0.0003,-0.0003,-0.0004,0,0.0318,0.0341,0.0416,0.0449,0.0486,0.0539,0.0563,0.0581,0.0566,0.0514,0.0477,0.0396,0.033,0.0183,0.0118,0.0032,0.0024,0.0009,0.0029,0.0051,0.0048,0.0054,0.0061,-0.0005,-0.0006,-0.0006,-0.0006,0,0.0303,0.0339,0.037,0.0439,0.0492,0.0532,0.0564,0.0555,0.0537,0.0544,0.0433,0.0359,0.025,0.0147,0.0087,0.0023,0.0027,0.0,0.0002,0.0021,0.0045,0.0044,0.0051,-0.0009,-0.0009,-0.0008,-0.0008,0,0.0292,0.0308,0.0358,0.0414,0.0477,0.0496,0.0523,0.0501,0.0494,0.0438,0.0391,0.0293,0.0242,0.014,0.007,0.0018,0.0012,0.0017,0.0018,0.002,0.0039,0.0074,0.0008,0,0,0,0,0,0.0278,0.0291,0.0332,0.0379,0.0436,0.0477,0.05,0.0509,0.0497,0.0418,0.0409,0.0303,0.0188,0.0127,0.0069,0.0059,0.0008,-0.0008,0.0016,-0.0026,-0.0022,-0.0005,0,0,0,0,0,0,0.0267,0.0299,0.0311,0.0342,0.0375,0.0423,0.0443,0.0436,0.0387,0.0371,0.03,0.03,0.0179,0.0217,0.0067,0.0052,0.0063,-0.0052,-0.0053,-0.0028,-0.0024,-0.0022,-0.0003,0,0,0,0,0]}]]